This demonstration page uses our WeatherBlox Daily Observations layout. Learn more.

Left ArrowRight Arrow

41.12389, -100.76542

Hourly Observations for March 11, 2021

Temp ( °F °C ) Dew Point ( °F °C ) Humidity (%) Winds ( mph kmh ) Pressure ( in mb ) Visibility ( mi km ) Precip ( " mm )
12:53 am 00:53 Clear 24 -4.4 20 -6.7 84 84 NW 7 11 30.06 1018 10 16 0.00 0.00
1:53 am 01:53 Clear 24 -4.4 20 -6.7 84 84 NW 9 15 30.06 1018 10 16 0.00 0.00
2:53 am 02:53 Clear 24 -4.4 20 -6.7 84 84 SW 6 9 30.09 1019 10 16 0.00 0.00
3:53 am 03:53 Clear 20 -6.7 17 -8.3 89 89 WSW 3 6 30.12 1020 10 16 0.00 0.00
4:53 am 04:53 Clear 22 -5.6 18 -7.8 85 85 WNW 3 6 30.14 1021 10 16 0.00 0.00
5:53 am 05:53 Clear 20 -6.7 17 -8.3 89 89 WNW 5 7 30.19 1022 10 16 0.00 0.00
6:53 am 06:53 Clear 18 -7.8 15 -9.4 88 88 NW 5 7 30.21 1023 10 16 0.00 0.00
7:53 am 07:53 Sunny 23 -5 20 -6.7 88 88 W 3 6 30.23 1024 10 16 0.00 0.00
8:53 am 08:53 Sunny 31 -0.6 25 -3.9 79 79 NW 8 13 30.25 1024 10 16 0.00 0.00
9:53 am 09:53 Sunny 37 2.8 28 -2.2 70 70 WNW 9 15 30.26 1025 10 16 0.00 0.00
10:53 am 10:53 Sunny 42 5.6 28 -2.2 58 58 VRB 5 7 30.26 1025 10 16 0.00 0.00
11:53 am 11:53 Sunny 46 7.8 25 -3.9 44 44 Calm 30.25 1024 10 16 0.00 0.00
12:53 pm 12:53 Sunny 47 8.3 25 -3.9 42 42 E 5 7 30.23 1024 10 16 0.00 0.00
1:53 pm 13:53 Mostly Sunny 50 10 23 -5 35 35 VRB 5 7 30.19 1023 10 16 0.00 0.00
2:53 pm 14:53 Partly Cloudy 54 12.2 19 -7.2 25 25 VRB 6 9 30.17 1022 10 16 0.00 0.00
3:53 pm 15:53 Cloudy 53 11.7 18 -7.8 25 25 E 3 6 30.18 1022 10 16 0.00 0.00
4:53 pm 16:53 Mostly Cloudy 52 11.1 17 -8.3 25 25 ESE 3 6 30.18 1022 10 16 0.00 0.00
5:53 pm 17:53 Mostly Sunny 51 10.6 17 -8.3 26 26 ESE 10 17 30.19 1023 10 16 0.00 0.00
6:53 pm 18:53 Clear 41 5 19 -7.2 41 41 ENE 7 11 30.24 1024 10 16 0.00 0.00
7:53 pm 19:53 Clear 35 1.7 17 -8.3 48 48 ESE 5 7 30.28 1025 10 16 0.00 0.00
8:53 pm 20:53 Clear 34 1.1 19 -7.2 54 54 E 6 9 30.28 1026 10 16 0.00 0.00
9:53 pm 21:53 Clear 32 0 20 -6.7 61 61 E 9 15 30.30 1026 10 16 0.00 0.00
10:53 pm 22:53 Clear 28 -2.2 20 -6.7 72 72 E 7 11 30.32 1027 10 16 0.00 0.00
11:53 pm 23:53 Clear 32 0 22 -5.6 66 66 E 8 13 30.30 1026 10 16 0.00 0.00

Powered by AerisWeather